sat.trackr.live / text

‹ back to catalog

STARLINK-37019

NORAD 68273 · 2026-055M

PAYLOAD ACTIVE UNKNOWN

§ Identity

Operator
Country
US
Launch date
2026-03-19
Launch site
AFETR
Launch vehicle
Mass (kg)
RCS (m²)

Purposes: comms

External: N2YO · Heavens-Above · Gunter

§ Orbital elements

Epoch: 2026-05-24T21:40:56.784000Z

Period
93.78 min
Inclination
53.1599°
Eccentricity
0.0000659
Mean motion
15.35427452 rev/d
Perigee alt
459.2 km
Apogee alt
460.1 km
Semi-major
6,837.8 km
B*
7.0196e-4
RAAN
324.2680°
Arg perigee
73.8677°
Mean anomaly
286.2399°
Rev number
1,161

§ Raw data

STARLINK-370191 68273U 26055M   26144.90343500  .00024205  00000+0  70196-3 0  99932 68273  53.1599 324.2680 0000659  73.8677 286.2399 15.35427452 11619

JSON: /api/v1/satellites/68273 · /tle

For live sub-satellite position, see the globe view (requires WebGL).

§ Visibility from observer

Set your observer location to see the next 7 days of passes ≥ 10°. The values pass through the URL so the page stays shareable.

No JS? Fill the form by hand. The geolocation button needs JavaScript.